Flag for U.S.A. Weather past 2 weeks in New York, New York, U.S.A.

Now
39 °F

Low clouds.


Feels Like: 32 °F
Forecast: 35 / 43 °F
Wind: 10 mph from East

Location: New York City - Central Park

Current Time: Dec 22, 2014 at 12:16:12 PM

Latest Report: Dec 22, 2014 at 10:51 AM


Visibility: 8 mi

Pressure: 30.32 "Hg

Humidity: 82%

Dew point: 34 °F

Location of New YorkLocation

Historic Weather in New York — Graph

°F

New York temperature yesterday

Maximum temperature yesterday: 35 °F (at 2:51 PM)
Minimum temperature yesterday: 31 °F (at 1:51 AM)
Average temperature yesterday: 33 °F

Past Weeks' High & Low Weather Summary

 TemperatureHumidityPressure
High53 °F (Dec 17, 12:51 PM)90% (Dec 9, 5:51 AM)30.68 "Hg (Dec 9, 5:51 AM)
Low25 °F (Dec 8, 4:51 AM)27% (Dec 7, 11:51 PM)29.58 "Hg (Dec 10, 2:51 PM)
Average37 °F64%30.03 "Hg
* Reported Dec 7 10:51 AM — Dec 22 10:51 AM, New York, Weather by CustomWeather, © 2014

Note: Actual official high and low records may vary slightly from our data, if they occured in-between our weather recording intervals... More about our weather records

Advertising

New York weather history for previous 24 hours

 ConditionsComfort  
Time TempWeatherWind HumidityBarometerVisibility
10:51 AM
Dec 22
39 °FLow clouds.10 mph82%30.32 "Hg8 mi
9:51 AM38 °FLow clouds.8 mph83%30.32 "Hg7 mi
8:51 AM37 °FOvercast.6 mph82%30.32 "Hg7 mi
7:51 AM36 °FOvercast.5 mph82%30.31 "Hg7 mi
6:51 AM36 °FLow clouds.6 mph82%30.31 "Hg8 mi
5:51 AM36 °FLow clouds.5 mph82%30.31 "Hg8 mi
4:51 AM36 °FOvercast.3 mph79%30.32 "Hg10 mi
3:51 AM36 °FOvercast.No wind79%30.32 "Hg10 mi
2:51 AM35 °FOvercast.3 mph78%30.33 "Hg10 mi
1:51 AM35 °FMostly cloudy.5 mph78%30.32 "Hg10 mi
12:51 AM35 °FMostly cloudy.5 mph78%30.32 "Hg10 mi
11:51 PM
Dec 21
35 °FOvercast.6 mph78%30.32 "Hg10 mi
10:51 PM35 °FOvercast.6 mph78%30.33 "Hg10 mi
9:51 PM34 °FLight snow. Overcast.6 mph82%30.32 "Hg6 mi
8:51 PM34 °FMostly cloudy.5 mph79%30.33 "Hg10 mi
6:51 PM34 °FOvercast.6 mph76%30.33 "Hg10 mi
5:51 PM35 °FOvercast.7 mph70%30.30 "Hg8 mi
4:51 PM35 °FMostly cloudy.8 mph70%30.29 "Hg10 mi
3:51 PM35 °FOvercast.5 mph72%30.29 "Hg10 mi
2:51 PM35 °FOvercast.3 mph70%30.28 "Hg10 mi
1:51 PM34 °FOvercast.5 mph73%30.28 "Hg10 mi
12:51 PM34 °FMostly cloudy.7 mph70%30.28 "Hg9 mi
Weather by CustomWeather, © 2014

See weather overviewHow to use our weather pages